Terminal Aerodrome Forecast
Issued by NWS

Home | Current Version | Previous Version | Text Only | Print | Product List | Glossary On
Versions: 1 2 3 4 5 6 7 8 9 10 11 12 13
000
FTUS44 KLZK 280520
TAFPBF
TAF
KPBF 280520Z 2806/2906 28003KT P6SM VCFG SCT100 SCT250
      TEMPO 2807/2810 5SM BR
     FM281000 VRB04KT 5SM BR SCT008 OVC100
      TEMPO 2810/2814 3SM BR
     FM281400 24006KT P6SM VCTS SCT060CB OVC100 PROB30 2817/2823 5SM
      -TSRA BR BKN025CB=

USA.gov is the U.S. government's official web portal to all federal, state and local government web resources and services.